Вернуться в каталог

TITAN 3C TRANSTAGE DEB

АктивенMEO
NORAD 38690·DEBRIS·🇺🇸 United States

Запущен Sep 26, 1968 с Cape Canaveral Space Force Station

Loading…

Ближайшие Пролёты (ближайшие 24 часа)

TLE

СвежийSource: Space-Track

Эпоха: Sep 14, 2026, 06:41 UTC

1 38690U 68081Q   26257.27861756 -.00000282  00000-0  00000-0 0  9996
2 38690   1.9797  25.1092 0247006 323.4818  35.2085  0.99326461 51377

Отслеживайте TITAN 3C TRANSTAGE DEB в реальном времени с AllMySat

Download on the App Store